Time,TemperatureF,DewpointF,PressureIn,WindDirection,WindDirectionDegrees,WindSpeedMPH,WindSpeedGustMPH,Humidity,HourlyPrecipIn,Conditions,Clouds,dailyrainin,SoftwareType,DateUTC
2013-05-25 00:04:00,50.4,37.8,30.31,SE,135,8.0,8.0,62,0.00,,,0.00,meteohub,2013-05-25 05:04:00,
2013-05-25 00:09:00,50.2,37.2,30.30,SE,135,8.0,8.0,61,0.00,,,0.00,meteohub,2013-05-25 05:09:00,
2013-05-25 00:14:00,50.0,37.0,30.31,SE,135,6.0,8.0,61,0.00,,,0.00,meteohub,2013-05-25 05:14:00,
2013-05-25 00:19:00,50.0,37.0,30.30,SE,135,8.0,8.0,61,0.00,,,0.00,meteohub,2013-05-25 05:19:00,
2013-05-25 00:24:00,49.8,36.9,30.30,SE,135,9.0,9.0,61,0.00,,,0.00,meteohub,2013-05-25 05:24:00,
2013-05-25 00:29:00,49.6,37.2,30.30,SE,135,7.0,9.0,62,0.00,,,0.00,meteohub,2013-05-25 05:29:00,
2013-05-25 00:34:00,49.5,36.5,30.30,SE,135,8.0,9.0,61,0.00,,,0.00,meteohub,2013-05-25 05:34:00,
2013-05-25 00:40:00,49.5,36.5,30.30,SE,135,9.0,9.0,61,0.00,,,0.00,meteohub,2013-05-25 05:40:00,
2013-05-25 00:45:00,49.5,36.5,30.29,SE,135,7.0,9.0,61,0.00,,,0.00,meteohub,2013-05-25 05:45:00,
2013-05-25 00:50:00,49.5,36.5,30.29,SE,135,8.0,9.0,61,0.00,,,0.00,meteohub,2013-05-25 05:50:00,
2013-05-25 00:55:00,49.5,36.5,30.29,South,180,8.0,9.0,61,0.00,,,0.00,meteohub,2013-05-25 05:55:00,
2013-05-25 01:00:00,49.5,36.1,30.29,South,180,8.0,9.0,60,0.00,,,0.00,meteohub,2013-05-25 06:00:00,
2013-05-25 01:05:00,49.5,36.1,30.29,South,180,8.0,11.0,60,0.00,,,0.00,meteohub,2013-05-25 06:05:00,
2013-05-25 01:10:00,49.3,36.0,30.29,SE,135,7.0,9.0,60,0.00,,,0.00,meteohub,2013-05-25 06:10:00,
2013-05-25 01:15:00,49.3,36.0,30.30,SE,135,8.0,8.0,60,0.00,,,0.00,meteohub,2013-05-25 06:15:00,
2013-05-25 01:20:00,49.3,35.6,30.30,SE,135,7.0,9.0,59,0.00,,,0.00,meteohub,2013-05-25 06:20:00,
2013-05-25 01:25:00,49.3,35.6,30.30,SE,135,7.0,9.0,59,0.00,,,0.00,meteohub,2013-05-25 06:25:00,
2013-05-25 01:30:00,49.3,35.6,30.30,SSE,158,5.0,8.0,59,0.00,,,0.00,meteohub,2013-05-25 06:30:00,
2013-05-25 01:35:00,49.1,34.9,30.30,South,180,6.0,9.0,58,0.00,,,0.00,meteohub,2013-05-25 06:35:00,
2013-05-25 01:40:00,49.1,34.9,30.30,South,180,4.0,9.0,58,0.00,,,0.00,meteohub,2013-05-25 06:40:00,
2013-05-25 01:46:00,48.9,34.9,30.31,South,180,4.0,9.0,58,0.00,,,0.00,meteohub,2013-05-25 06:46:00,
2013-05-25 01:51:00,48.9,34.3,30.31,South,180,6.0,8.0,57,0.00,,,0.00,meteohub,2013-05-25 06:51:00,
2013-05-25 01:56:00,48.9,34.9,30.31,South,180,8.0,8.0,58,0.00,,,0.00,meteohub,2013-05-25 06:56:00,
2013-05-25 02:01:00,48.7,35.4,30.30,SE,135,9.0,9.0,60,0.00,,,0.00,meteohub,2013-05-25 07:01:00,
2013-05-25 02:06:00,48.4,35.1,30.30,South,180,8.0,9.0,60,0.00,,,0.00,meteohub,2013-05-25 07:06:00,
2013-05-25 02:11:00,48.4,35.1,30.30,South,180,7.0,9.0,60,0.00,,,0.00,meteohub,2013-05-25 07:11:00,
2013-05-25 02:16:00,48.2,35.4,30.30,South,180,4.0,9.0,61,0.00,,,0.00,meteohub,2013-05-25 07:16:00,
2013-05-25 02:21:00,48.2,35.4,30.30,SE,135,5.0,8.0,61,0.00,,,0.00,meteohub,2013-05-25 07:21:00,
2013-05-25 02:26:00,48.2,35.4,30.30,SE,135,5.0,8.0,61,0.00,,,0.00,meteohub,2013-05-25 07:26:00,
2013-05-25 02:31:00,47.7,35.6,30.30,SE,135,6.0,6.0,63,0.00,,,0.00,meteohub,2013-05-25 07:31:00,
2013-05-25 02:36:00,47.7,36.1,30.30,SE,135,5.0,8.0,64,0.00,,,0.00,meteohub,2013-05-25 07:36:00,
2013-05-25 02:41:00,47.5,36.0,30.30,East,90,6.0,8.0,64,0.00,,,0.00,meteohub,2013-05-25 07:41:00,
2013-05-25 02:46:00,47.5,36.3,30.31,East,90,6.0,8.0,65,0.00,,,0.00,meteohub,2013-05-25 07:46:00,
2013-05-25 02:51:00,47.3,36.5,30.31,East,90,5.0,7.0,66,0.00,,,0.00,meteohub,2013-05-25 07:51:00,
2013-05-25 02:57:00,47.1,36.7,30.30,East,90,7.0,7.0,67,0.00,,,0.00,meteohub,2013-05-25 07:57:00,
2013-05-25 03:02:00,46.9,36.5,30.30,SE,135,8.0,8.0,67,0.00,,,0.00,meteohub,2013-05-25 08:02:00,
2013-05-25 03:07:00,46.9,36.5,30.30,SE,135,8.0,8.0,67,0.00,,,0.00,meteohub,2013-05-25 08:07:00,
2013-05-25 03:12:00,46.8,36.3,30.30,South,180,4.0,8.0,67,0.00,,,0.00,meteohub,2013-05-25 08:12:00,
2013-05-25 03:17:00,46.6,36.5,30.30,SE,135,5.0,8.0,68,0.00,,,0.00,meteohub,2013-05-25 08:17:00,
2013-05-25 03:22:00,46.4,36.5,30.30,SSE,158,4.0,8.0,68,0.00,,,0.00,meteohub,2013-05-25 08:22:00,
2013-05-25 03:27:00,46.2,36.7,30.30,SE,135,5.0,8.0,69,0.00,,,0.00,meteohub,2013-05-25 08:27:00,
2013-05-25 03:32:00,46.2,37.8,30.30,East,90,5.0,6.0,72,0.00,,,0.00,meteohub,2013-05-25 08:32:00,
2013-05-25 03:37:00,46.2,37.8,30.31,ESE,113,6.0,6.0,72,0.00,,,0.00,meteohub,2013-05-25 08:37:00,
2013-05-25 03:42:00,46.2,37.8,30.30,SE,135,5.0,8.0,72,0.00,,,0.00,meteohub,2013-05-25 08:42:00,
2013-05-25 03:47:00,46.2,38.1,30.30,East,90,5.0,8.0,73,0.00,,,0.00,meteohub,2013-05-25 08:47:00,
2013-05-25 03:52:00,46.0,37.9,30.30,East,90,8.0,8.0,73,0.00,,,0.00,meteohub,2013-05-25 08:52:00,
2013-05-25 03:57:00,46.0,37.9,30.31,SE,135,7.0,8.0,73,0.00,,,0.00,meteohub,2013-05-25 08:57:00,
2013-05-25 04:02:00,45.9,37.8,30.31,South,180,8.0,8.0,73,0.00,,,0.00,meteohub,2013-05-25 09:02:00,
2013-05-25 04:07:00,45.9,37.4,30.30,South,180,8.0,8.0,72,0.00,,,0.00,meteohub,2013-05-25 09:07:00,
2013-05-25 04:12:00,45.7,37.2,30.31,South,180,8.0,8.0,72,0.00,,,0.00,meteohub,2013-05-25 09:12:00,
2013-05-25 04:17:00,45.7,37.6,30.31,SE,135,5.0,8.0,73,0.01,,,0.01,meteohub,2013-05-25 09:17:00,
2013-05-25 04:22:00,45.5,37.8,30.31,SE,135,5.0,8.0,74,0.01,,,0.01,meteohub,2013-05-25 09:22:00,
2013-05-25 04:27:00,45.5,37.8,30.31,South,180,6.0,8.0,74,0.01,,,0.01,meteohub,2013-05-25 09:27:00,
2013-05-25 04:32:00,45.3,37.2,30.31,South,180,7.0,8.0,73,0.02,,,0.02,meteohub,2013-05-25 09:32:00,
2013-05-25 04:37:00,45.3,37.2,30.31,South,180,7.0,8.0,73,0.02,,,0.02,meteohub,2013-05-25 09:37:00,
2013-05-25 04:42:00,45.1,37.0,30.31,SE,135,5.0,8.0,73,0.02,,,0.02,meteohub,2013-05-25 09:42:00,
2013-05-25 04:47:00,45.1,37.0,30.32,South,180,3.0,8.0,73,0.02,,,0.02,meteohub,2013-05-25 09:47:00,
2013-05-25 04:52:00,45.1,37.0,30.32,South,180,3.0,8.0,73,0.02,,,0.02,meteohub,2013-05-25 09:52:00,
2013-05-25 04:57:00,44.8,37.4,30.31,SE,135,6.0,6.0,75,0.02,,,0.02,meteohub,2013-05-25 09:57:00,
2013-05-25 05:02:00,44.8,37.8,30.31,SE,135,5.0,6.0,76,0.02,,,0.02,meteohub,2013-05-25 10:02:00,
2013-05-25 05:07:00,44.8,37.8,30.31,SE,135,5.0,6.0,76,0.02,,,0.02,meteohub,2013-05-25 10:07:00,
2013-05-25 05:12:00,44.8,37.8,30.31,SE,135,7.0,7.0,76,0.01,,,0.02,meteohub,2013-05-25 10:12:00,
2013-05-25 05:17:00,44.8,37.9,30.31,East,90,4.0,7.0,77,0.02,,,0.04,meteohub,2013-05-25 10:17:00,
2013-05-25 05:22:00,44.6,37.8,30.32,SE,135,3.0,7.0,77,0.02,,,0.04,meteohub,2013-05-25 10:22:00,
2013-05-25 05:27:00,44.6,38.1,30.32,WSW,248,3.0,7.0,78,0.02,,,0.04,meteohub,2013-05-25 10:27:00,
2013-05-25 05:32:00,44.6,37.8,30.33,South,180,3.0,5.0,77,0.01,,,0.04,meteohub,2013-05-25 10:32:00,
2013-05-25 05:37:00,44.6,37.6,30.32,SE,135,3.0,4.0,76,0.01,,,0.04,meteohub,2013-05-25 10:37:00,
2013-05-25 05:42:00,44.8,37.8,30.33,SE,135,3.0,4.0,76,0.01,,,0.04,meteohub,2013-05-25 10:42:00,
2013-05-25 05:47:00,44.8,37.8,30.33,East,90,4.0,4.0,76,0.01,,,0.04,meteohub,2013-05-25 10:47:00,
2013-05-25 05:52:00,44.8,37.9,30.33,East,90,4.0,4.0,77,0.01,,,0.04,meteohub,2013-05-25 10:52:00,
2013-05-25 05:57:00,44.8,37.9,30.33,East,90,4.0,4.0,77,0.01,,,0.04,meteohub,2013-05-25 10:57:00,
2013-05-25 06:02:00,44.8,37.8,30.33,SE,135,5.0,5.0,76,0.01,,,0.04,meteohub,2013-05-25 11:02:00,
2013-05-25 06:07:00,44.6,36.9,30.33,SE,135,6.0,6.0,74,0.01,,,0.04,meteohub,2013-05-25 11:07:00,
2013-05-25 06:12:00,44.4,36.7,30.33,East,90,7.0,7.0,74,0.00,,,0.04,meteohub,2013-05-25 11:12:00,
2013-05-25 06:17:00,44.4,36.7,30.33,East,90,6.0,8.0,74,0.00,,,0.04,meteohub,2013-05-25 11:17:00,
2013-05-25 06:22:00,44.2,36.5,30.33,East,90,5.0,8.0,74,0.00,,,0.04,meteohub,2013-05-25 11:22:00,
2013-05-25 06:27:00,44.2,35.8,30.33,East,90,6.0,8.0,72,0.00,,,0.04,meteohub,2013-05-25 11:27:00,
2013-05-25 06:32:00,44.4,36.3,30.34,East,90,6.0,8.0,73,0.00,,,0.04,meteohub,2013-05-25 11:32:00,
2013-05-25 06:37:00,44.4,36.0,30.34,NE,45,8.0,8.0,72,0.00,,,0.04,meteohub,2013-05-25 11:37:00,
2013-05-25 06:42:00,44.6,35.8,30.34,East,90,7.0,8.0,71,0.00,,,0.04,meteohub,2013-05-25 11:42:00,
2013-05-25 06:47:00,44.8,36.0,30.35,East,90,4.0,8.0,71,0.00,,,0.04,meteohub,2013-05-25 11:47:00,
2013-05-25 06:52:00,44.8,36.0,30.35,SE,135,4.0,8.0,71,0.00,,,0.04,meteohub,2013-05-25 11:52:00,
2013-05-25 06:57:00,45.0,36.9,30.36,SW,225,4.0,8.0,73,0.00,,,0.04,meteohub,2013-05-25 11:57:00,
2013-05-25 07:02:00,44.8,36.0,30.36,SW,225,4.0,6.0,71,0.00,,,0.04,meteohub,2013-05-25 12:02:00,
2013-05-25 07:07:00,44.8,34.9,30.36,SSW,203,5.0,6.0,68,0.00,,,0.04,meteohub,2013-05-25 12:07:00,
2013-05-25 07:12:00,45.0,35.8,30.36,West,270,2.0,6.0,70,0.00,,,0.04,meteohub,2013-05-25 12:12:00,
2013-05-25 07:17:00,45.0,35.4,30.36,SW,225,4.0,5.0,69,0.00,,,0.04,meteohub,2013-05-25 12:17:00,
2013-05-25 07:22:00,45.1,35.2,30.36,South,180,3.0,5.0,68,0.00,,,0.04,meteohub,2013-05-25 12:22:00,
2013-05-25 07:27:00,45.1,34.5,30.36,SE,135,4.0,5.0,66,0.00,,,0.04,meteohub,2013-05-25 12:27:00,
2013-05-25 07:32:00,45.3,34.3,30.36,WSW,248,4.0,5.0,65,0.00,,,0.04,meteohub,2013-05-25 12:32:00,
2013-05-25 07:37:00,45.3,35.4,30.36,SSW,203,4.0,6.0,68,0.00,,,0.04,meteohub,2013-05-25 12:37:00,
2013-05-25 07:42:00,45.3,35.1,30.36,SSW,203,4.0,6.0,67,0.00,,,0.04,meteohub,2013-05-25 12:42:00,
2013-05-25 07:47:00,45.5,35.6,30.36,South,180,4.0,6.0,68,0.00,,,0.04,meteohub,2013-05-25 12:47:00,
2013-05-25 07:52:00,45.5,36.7,30.36,SW,225,6.0,6.0,71,0.00,,,0.04,meteohub,2013-05-25 12:52:00,
2013-05-25 07:57:00,45.5,37.4,30.36,SW,225,6.0,6.0,73,0.00,,,0.04,meteohub,2013-05-25 12:57:00,
2013-05-25 08:02:00,45.5,37.8,30.36,WSW,248,6.0,7.0,74,0.00,,,0.04,meteohub,2013-05-25 13:02:00,
2013-05-25 08:07:00,45.7,38.3,30.35,SW,225,6.0,7.0,75,0.00,,,0.04,meteohub,2013-05-25 13:07:00,
2013-05-25 08:12:00,45.7,37.2,30.35,SSW,203,6.0,7.0,72,0.00,,,0.04,meteohub,2013-05-25 13:12:00,
2013-05-25 08:17:00,45.9,35.6,30.36,SW,225,10.0,10.0,67,0.00,,,0.04,meteohub,2013-05-25 13:17:00,
2013-05-25 08:22:00,46.0,34.9,30.35,SW,225,8.0,10.0,65,0.00,,,0.04,meteohub,2013-05-25 13:22:00,
2013-05-25 08:27:00,46.2,34.3,30.35,South,180,7.0,10.0,63,0.00,,,0.04,meteohub,2013-05-25 13:27:00,
2013-05-25 08:32:00,46.4,34.5,30.35,South,180,4.0,10.0,63,0.00,,,0.04,meteohub,2013-05-25 13:32:00,
2013-05-25 08:37:00,46.4,34.2,30.35,South,180,6.0,9.0,62,0.00,,,0.04,meteohub,2013-05-25 13:37:00,
2013-05-25 08:42:00,46.6,34.3,30.35,SW,225,7.0,8.0,62,0.00,,,0.04,meteohub,2013-05-25 13:42:00,
2013-05-25 08:47:00,46.6,34.7,30.35,SE,135,3.0,8.0,63,0.00,,,0.04,meteohub,2013-05-25 13:47:00,
2013-05-25 08:52:00,46.8,34.0,30.35,SSE,158,6.0,7.0,61,0.00,,,0.04,meteohub,2013-05-25 13:52:00,
2013-05-25 08:57:00,46.8,34.0,30.35,South,180,6.0,8.0,61,0.00,,,0.04,meteohub,2013-05-25 13:57:00,
2013-05-25 09:02:00,46.6,33.4,30.35,South,180,5.0,8.0,60,0.00,,,0.04,meteohub,2013-05-25 14:02:00,
2013-05-25 09:07:00,47.1,34.3,30.35,SE,135,6.0,8.0,61,0.00,,,0.04,meteohub,2013-05-25 14:07:00,
2013-05-25 09:12:00,47.3,34.2,30.35,South,180,5.0,8.0,60,0.00,,,0.04,meteohub,2013-05-25 14:12:00,
2013-05-25 09:17:00,47.5,33.8,30.35,SE,135,6.0,8.0,59,0.00,,,0.04,meteohub,2013-05-25 14:17:00,
2013-05-25 09:22:00,47.7,34.0,30.34,South,180,6.0,8.0,59,0.00,,,0.04,meteohub,2013-05-25 14:22:00,
2013-05-25 09:27:00,47.8,33.3,30.35,SW,225,7.0,8.0,57,0.00,,,0.04,meteohub,2013-05-25 14:27:00,
2013-05-25 09:32:00,48.2,33.3,30.34,South,180,7.0,9.0,56,0.00,,,0.04,meteohub,2013-05-25 14:32:00,
2013-05-25 09:37:00,48.4,33.8,30.34,SE,135,7.0,9.0,57,0.00,,,0.04,meteohub,2013-05-25 14:37:00,
2013-05-25 09:42:00,48.7,34.7,30.34,South,180,7.0,9.0,58,0.00,,,0.04,meteohub,2013-05-25 14:42:00,
2013-05-25 09:47:00,48.9,33.4,30.35,South,180,9.0,9.0,55,0.00,,,0.04,meteohub,2013-05-25 14:47:00,
2013-05-25 09:52:00,48.9,33.4,30.34,SE,135,6.0,9.0,55,0.00,,,0.04,meteohub,2013-05-25 14:52:00,
2013-05-25 09:57:00,49.1,34.2,30.35,SW,225,7.0,9.0,56,0.00,,,0.04,meteohub,2013-05-25 14:57:00,
2013-05-25 10:02:00,49.1,33.6,30.35,South,180,5.0,9.0,55,0.00,,,0.04,meteohub,2013-05-25 15:02:00,
2013-05-25 10:07:00,49.5,33.4,30.35,South,180,8.0,8.0,54,0.00,,,0.04,meteohub,2013-05-25 15:07:00,
2013-05-25 10:12:00,49.5,33.4,30.35,South,180,6.0,8.0,54,0.00,,,0.04,meteohub,2013-05-25 15:12:00,
2013-05-25 10:17:00,49.5,33.1,30.35,South,180,8.0,8.0,53,0.00,,,0.04,meteohub,2013-05-25 15:17:00,
2013-05-25 10:22:00,49.5,34.0,30.35,SE,135,8.0,8.0,55,0.00,,,0.04,meteohub,2013-05-25 15:22:00,
2013-05-25 10:27:00,49.6,34.2,30.35,South,180,7.0,9.0,55,0.00,,,0.04,meteohub,2013-05-25 15:27:00,
2013-05-25 10:32:00,49.6,33.6,30.34,SE,135,10.0,10.0,54,0.00,,,0.04,meteohub,2013-05-25 15:32:00,
2013-05-25 10:37:00,49.8,33.4,30.34,SE,135,9.0,10.0,53,0.00,,,0.04,meteohub,2013-05-25 15:37:00,
2013-05-25 10:42:00,49.8,32.9,30.34,SE,135,11.0,11.0,52,0.00,,,0.04,meteohub,2013-05-25 15:42:00,
2013-05-25 10:47:00,50.0,33.1,30.34,SE,135,9.0,11.0,52,0.00,,,0.04,meteohub,2013-05-25 15:47:00,
2013-05-25 10:52:00,50.2,32.7,30.34,South,180,9.0,11.0,51,0.00,,,0.04,meteohub,2013-05-25 15:52:00,
2013-05-25 10:57:00,50.4,32.9,30.34,SE,135,9.0,11.0,51,0.00,,,0.04,meteohub,2013-05-25 15:57:00,
2013-05-25 11:02:00,50.5,32.5,30.34,SE,135,10.0,11.0,50,0.00,,,0.04,meteohub,2013-05-25 16:02:00,
2013-05-25 11:07:00,50.7,32.2,30.34,SE,135,8.0,11.0,49,0.00,,,0.04,meteohub,2013-05-25 16:07:00,
2013-05-25 11:12:00,51.1,31.6,30.34,South,180,8.0,11.0,47,0.00,,,0.04,meteohub,2013-05-25 16:12:00,
2013-05-25 11:17:00,51.3,32.2,30.35,SE,135,7.0,10.0,48,0.00,,,0.04,meteohub,2013-05-25 16:17:00,
2013-05-25 11:22:00,51.6,32.5,30.35,SE,135,10.0,11.0,48,0.00,,,0.04,meteohub,2013-05-25 16:22:00,
2013-05-25 11:27:00,52.2,32.5,30.34,South,180,11.0,11.0,47,0.00,,,0.04,meteohub,2013-05-25 16:27:00,
2013-05-25 11:32:00,52.5,34.0,30.33,SE,135,8.0,11.0,49,0.00,,,0.04,meteohub,2013-05-25 16:32:00,
2013-05-25 11:37:00,52.9,33.3,30.34,South,180,9.0,11.0,47,0.00,,,0.04,meteohub,2013-05-25 16:37:00,
2013-05-25 11:42:00,53.2,34.0,30.34,South,180,7.0,11.0,48,0.00,,,0.04,meteohub,2013-05-25 16:42:00,
2013-05-25 11:47:00,53.6,33.3,30.34,SE,135,7.0,11.0,46,0.00,,,0.04,meteohub,2013-05-25 16:47:00,
2013-05-25 11:52:00,53.4,32.5,30.35,SE,135,11.0,11.0,45,0.00,,,0.04,meteohub,2013-05-25 16:52:00,
2013-05-25 11:57:00,53.6,33.3,30.34,South,180,11.0,11.0,46,0.00,,,0.04,meteohub,2013-05-25 16:57:00,
2013-05-25 12:02:00,53.8,32.9,30.34,South,180,12.0,12.0,45,0.00,,,0.04,meteohub,2013-05-25 17:02:00,
2013-05-25 12:07:00,54.1,35.4,30.34,SE,135,11.0,12.0,49,0.00,,,0.04,meteohub,2013-05-25 17:07:00,
2013-05-25 12:12:00,54.9,34.5,30.33,South,180,12.0,13.0,46,0.00,,,0.04,meteohub,2013-05-25 17:12:00,
2013-05-25 12:17:00,55.4,35.4,30.32,SE,135,14.0,14.0,47,0.00,,,0.04,meteohub,2013-05-25 17:17:00,
2013-05-25 12:22:00,55.6,33.4,30.32,ESE,113,15.0,15.0,43,0.00,,,0.04,meteohub,2013-05-25 17:22:00,
2013-05-25 12:27:00,55.2,32.5,30.32,SSE,158,13.0,15.0,42,0.00,,,0.04,meteohub,2013-05-25 17:27:00,
2013-05-25 12:32:00,55.6,34.0,30.31,SE,135,15.0,15.0,44,0.00,,,0.04,meteohub,2013-05-25 17:32:00,
2013-05-25 12:37:00,55.8,35.8,30.31,ESE,113,13.0,15.0,47,0.00,,,0.04,meteohub,2013-05-25 17:37:00,
2013-05-25 12:42:00,55.6,34.0,30.31,East,90,15.0,16.0,44,0.00,,,0.04,meteohub,2013-05-25 17:42:00,
2013-05-25 12:47:00,55.9,36.5,30.30,East,90,9.0,16.0,48,0.00,,,0.04,meteohub,2013-05-25 17:47:00,
2013-05-25 12:52:00,55.9,33.8,30.29,SE,135,17.0,17.0,43,0.00,,,0.04,meteohub,2013-05-25 17:52:00,
2013-05-25 12:57:00,55.8,34.2,30.30,SE,135,14.0,17.0,44,0.00,,,0.04,meteohub,2013-05-25 17:57:00,
2013-05-25 13:02:00,55.8,33.6,30.29,East,90,16.0,17.0,43,0.00,,,0.04,meteohub,2013-05-25 18:02:00,
2013-05-25 13:07:00,55.8,32.4,30.29,SE,135,12.0,17.0,41,0.00,,,0.04,meteohub,2013-05-25 18:07:00,
2013-05-25 13:12:00,56.1,33.3,30.29,ESE,113,11.0,17.0,42,0.00,,,0.04,meteohub,2013-05-25 18:12:00,
2013-05-25 13:17:00,55.8,31.1,30.30,SSE,158,13.0,17.0,39,0.00,,,0.04,meteohub,2013-05-25 18:17:00,
2013-05-25 13:22:00,55.6,31.1,30.29,East,90,13.0,18.0,39,0.00,,,0.04,meteohub,2013-05-25 18:22:00,
2013-05-25 13:27:00,55.8,31.1,30.29,East,90,14.0,20.0,39,0.00,,,0.04,meteohub,2013-05-25 18:27:00,
2013-05-25 13:32:00,55.8,27.9,30.29,SE,135,18.0,20.0,34,0.00,,,0.04,meteohub,2013-05-25 18:32:00,
2013-05-25 13:37:00,55.4,28.9,30.30,ESE,113,14.0,20.0,36,0.00,,,0.04,meteohub,2013-05-25 18:37:00,
2013-05-25 13:42:00,55.2,29.5,30.30,SE,135,12.0,18.0,37,0.00,,,0.04,meteohub,2013-05-25 18:42:00,
2013-05-25 13:47:00,54.9,28.4,30.30,SE,135,15.0,18.0,36,0.00,,,0.04,meteohub,2013-05-25 18:47:00,
2013-05-25 13:52:00,54.9,29.1,30.30,SE,135,12.0,17.0,37,0.00,,,0.04,meteohub,2013-05-25 18:52:00,
2013-05-25 13:57:00,54.7,30.2,30.31,SE,135,8.0,17.0,39,0.00,,,0.04,meteohub,2013-05-25 18:57:00,
2013-05-25 14:02:00,54.7,30.9,30.31,SE,135,8.0,17.0,40,0.00,,,0.04,meteohub,2013-05-25 19:02:00,
2013-05-25 14:07:00,54.7,30.9,30.31,SE,135,7.0,15.0,40,0.00,,,0.04,meteohub,2013-05-25 19:07:00,
2013-05-25 14:12:00,54.5,30.0,30.31,SE,135,10.0,12.0,39,0.00,,,0.04,meteohub,2013-05-25 19:12:00,
2013-05-25 14:17:00,54.5,30.7,30.32,SE,135,9.0,11.0,40,0.00,,,0.04,meteohub,2013-05-25 19:17:00,
2013-05-25 14:22:00,54.3,30.6,30.31,South,180,7.0,12.0,40,0.00,,,0.04,meteohub,2013-05-25 19:22:00,
2013-05-25 14:27:00,54.5,31.3,30.32,SE,135,9.0,12.0,41,0.00,,,0.04,meteohub,2013-05-25 19:27:00,
2013-05-25 14:32:00,54.5,31.3,30.32,SE,135,8.0,12.0,41,0.00,,,0.04,meteohub,2013-05-25 19:32:00,
2013-05-25 14:37:00,54.5,31.8,30.32,SE,135,9.0,10.0,42,0.00,,,0.04,meteohub,2013-05-25 19:37:00,
2013-05-25 14:42:00,54.7,32.5,30.32,SE,135,8.0,10.0,43,0.00,,,0.04,meteohub,2013-05-25 19:42:00,
2013-05-25 14:47:00,54.7,32.5,30.31,SE,135,8.0,10.0,43,0.00,,,0.04,meteohub,2013-05-25 19:47:00,
2013-05-25 14:52:00,54.7,31.5,30.31,SE,135,8.0,10.0,41,0.00,,,0.04,meteohub,2013-05-25 19:52:00,
2013-05-25 14:57:00,54.7,32.0,30.31,East,90,10.0,10.0,42,0.00,,,0.04,meteohub,2013-05-25 19:57:00,
2013-05-25 15:02:00,54.9,31.6,30.31,SE,135,8.0,12.0,41,0.00,,,0.04,meteohub,2013-05-25 20:02:00,
2013-05-25 15:07:00,54.9,32.7,30.32,East,90,7.0,12.0,43,0.00,,,0.04,meteohub,2013-05-25 20:07:00,
2013-05-25 15:12:00,54.9,32.7,30.31,East,90,8.0,12.0,43,0.00,,,0.04,meteohub,2013-05-25 20:12:00,
2013-05-25 15:17:00,55.0,32.9,30.31,SE,135,11.0,11.0,43,0.00,,,0.04,meteohub,2013-05-25 20:17:00,
2013-05-25 15:22:00,54.9,32.2,30.32,ESE,113,8.0,11.0,42,0.00,,,0.04,meteohub,2013-05-25 20:22:00,
2013-05-25 15:27:00,55.0,32.9,30.31,East,90,11.0,11.0,43,0.00,,,0.04,meteohub,2013-05-25 20:27:00,
2013-05-25 15:32:00,55.0,32.9,30.31,SE,135,10.0,11.0,43,0.00,,,0.04,meteohub,2013-05-25 20:32:00,
2013-05-25 15:37:00,55.0,32.4,30.31,East,90,10.0,11.0,42,0.00,,,0.04,meteohub,2013-05-25 20:37:00,
2013-05-25 15:42:00,55.0,32.4,30.31,SE,135,8.0,11.0,42,0.00,,,0.04,meteohub,2013-05-25 20:42:00,
2013-05-25 15:47:00,55.0,32.4,30.31,SE,135,10.0,11.0,42,0.00,,,0.04,meteohub,2013-05-25 20:47:00,
2013-05-25 15:52:00,55.2,33.1,30.31,SE,135,8.0,11.0,43,0.00,,,0.04,meteohub,2013-05-25 20:52:00,
2013-05-25 15:57:00,55.4,33.8,30.31,SE,135,9.0,11.0,44,0.00,,,0.04,meteohub,2013-05-25 20:57:00,
2013-05-25 16:02:00,55.4,32.7,30.31,SE,135,10.0,11.0,42,0.00,,,0.04,meteohub,2013-05-25 21:02:00,
2013-05-25 16:07:00,55.4,33.3,30.30,SE,135,9.0,10.0,43,0.00,,,0.04,meteohub,2013-05-25 21:07:00,
2013-05-25 16:12:00,55.4,33.8,30.30,SE,135,8.0,11.0,44,0.00,,,0.04,meteohub,2013-05-25 21:12:00,
2013-05-25 16:17:00,55.4,34.3,30.30,East,90,7.0,11.0,45,0.00,,,0.04,meteohub,2013-05-25 21:17:00,
2013-05-25 16:22:00,55.4,33.8,30.30,SE,135,9.0,11.0,44,0.00,,,0.04,meteohub,2013-05-25 21:22:00,
2013-05-25 16:27:00,55.6,34.5,30.31,East,90,6.0,9.0,45,0.00,,,0.04,meteohub,2013-05-25 21:27:00,
2013-05-25 16:32:00,55.4,33.8,30.30,SE,135,8.0,9.0,44,0.00,,,0.04,meteohub,2013-05-25 21:32:00,
2013-05-25 16:37:00,55.4,34.3,30.30,East,90,8.0,9.0,45,0.00,,,0.04,meteohub,2013-05-25 21:37:00,
2013-05-25 16:42:00,55.6,34.5,30.30,East,90,9.0,9.0,45,0.00,,,0.04,meteohub,2013-05-25 21:42:00,
2013-05-25 16:47:00,55.4,33.8,30.30,SE,135,11.0,11.0,44,0.00,,,0.04,meteohub,2013-05-25 21:47:00,
2013-05-25 16:52:00,55.4,34.3,30.30,SE,135,9.0,11.0,45,0.00,,,0.04,meteohub,2013-05-25 21:52:00,
2013-05-25 16:57:00,55.6,34.5,30.30,East,90,10.0,11.0,45,0.00,,,0.04,meteohub,2013-05-25 21:57:00,
2013-05-25 17:02:00,55.8,34.2,30.30,SE,135,8.0,11.0,44,0.00,,,0.04,meteohub,2013-05-25 22:02:00,
2013-05-25 17:07:00,55.8,35.2,30.30,East,90,8.0,11.0,46,0.00,,,0.04,meteohub,2013-05-25 22:07:00,
2013-05-25 17:12:00,55.6,34.0,30.30,East,90,11.0,11.0,44,0.00,,,0.04,meteohub,2013-05-25 22:12:00,
2013-05-25 17:17:00,55.6,34.5,30.30,East,90,10.0,11.0,45,0.00,,,0.04,meteohub,2013-05-25 22:17:00,
2013-05-25 17:22:00,55.6,34.5,30.30,East,90,10.0,13.0,45,0.00,,,0.04,meteohub,2013-05-25 22:22:00,
2013-05-25 17:27:00,55.6,34.5,30.29,East,90,11.0,13.0,45,0.00,,,0.04,meteohub,2013-05-25 22:27:00,
2013-05-25 17:32:00,55.4,34.3,30.30,East,90,10.0,13.0,45,0.00,,,0.04,meteohub,2013-05-25 22:32:00,
2013-05-25 17:37:00,55.4,34.3,30.29,SE,135,11.0,13.0,45,0.00,,,0.04,meteohub,2013-05-25 22:37:00,
2013-05-25 17:42:00,55.4,34.3,30.29,SE,135,7.0,11.0,45,0.00,,,0.04,meteohub,2013-05-25 22:42:00,
2013-05-25 17:47:00,55.4,35.4,30.29,East,90,8.0,11.0,47,0.00,,,0.04,meteohub,2013-05-25 22:47:00,
2013-05-25 17:52:00,55.4,34.9,30.29,SE,135,8.0,11.0,46,0.00,,,0.04,meteohub,2013-05-25 22:52:00,
2013-05-25 17:57:00,55.2,35.4,30.28,SE,135,7.0,11.0,47,0.00,,,0.04,meteohub,2013-05-25 22:57:00,
2013-05-25 18:02:00,55.4,36.0,30.28,SE,135,6.0,11.0,48,0.00,,,0.04,meteohub,2013-05-25 23:02:00,
2013-05-25 18:07:00,55.4,35.4,30.28,SE,135,7.0,9.0,47,0.00,,,0.04,meteohub,2013-05-25 23:07:00,
2013-05-25 18:12:00,55.4,36.0,30.28,SE,135,6.0,8.0,48,0.00,,,0.04,meteohub,2013-05-25 23:12:00,
2013-05-25 18:17:00,55.2,35.4,30.29,SE,135,7.0,8.0,47,0.00,,,0.04,meteohub,2013-05-25 23:17:00,
2013-05-25 18:22:00,55.2,36.3,30.28,SE,135,4.0,8.0,49,0.00,,,0.04,meteohub,2013-05-25 23:22:00,
2013-05-25 18:27:00,55.2,36.0,30.28,SE,135,6.0,8.0,48,0.00,,,0.04,meteohub,2013-05-25 23:27:00,
2013-05-25 18:32:00,55.2,36.3,30.28,SE,135,6.0,8.0,49,0.00,,,0.04,meteohub,2013-05-25 23:32:00,
2013-05-25 18:37:00,55.2,36.3,30.28,SE,135,7.0,7.0,49,0.00,,,0.04,meteohub,2013-05-25 23:37:00,
2013-05-25 18:42:00,55.2,36.9,30.27,SE,135,6.0,7.0,50,0.00,,,0.04,meteohub,2013-05-25 23:42:00,
2013-05-25 18:47:00,55.2,36.9,30.28,SE,135,4.0,7.0,50,0.00,,,0.04,meteohub,2013-05-25 23:47:00,
2013-05-25 18:52:00,55.2,36.9,30.27,South,180,8.0,8.0,50,0.00,,,0.04,meteohub,2013-05-25 23:52:00,
2013-05-25 18:57:00,55.2,36.3,30.27,SE,135,6.0,8.0,49,0.00,,,0.04,meteohub,2013-05-25 23:57:00,
2013-05-25 19:02:00,55.2,35.4,30.27,SE,135,7.0,8.0,47,0.00,,,0.04,meteohub,2013-05-26 00:02:00,
2013-05-25 19:07:00,55.0,34.2,30.27,SE,135,9.0,9.0,45,0.00,,,0.04,meteohub,2013-05-26 00:07:00,
2013-05-25 19:12:00,55.0,33.4,30.27,SE,135,8.0,9.0,44,0.00,,,0.04,meteohub,2013-05-26 00:12:00,
2013-05-25 19:17:00,55.0,34.2,30.27,South,180,5.0,9.0,45,0.00,,,0.04,meteohub,2013-05-26 00:17:00,
2013-05-25 19:22:00,55.0,34.2,30.27,South,180,6.0,9.0,45,0.00,,,0.04,meteohub,2013-05-26 00:22:00,
2013-05-25 19:27:00,55.0,34.7,30.27,South,180,4.0,9.0,46,0.00,,,0.04,meteohub,2013-05-26 00:27:00,
2013-05-25 19:32:00,55.2,34.2,30.27,SE,135,6.0,9.0,45,0.00,,,0.04,meteohub,2013-05-26 00:32:00,
2013-05-25 19:37:00,55.2,33.1,30.27,SE,135,8.0,9.0,43,0.00,,,0.04,meteohub,2013-05-26 00:37:00,
2013-05-25 19:42:00,55.0,34.7,30.27,SE,135,5.0,8.0,46,0.00,,,0.04,meteohub,2013-05-26 00:42:00,
2013-05-25 19:47:00,54.9,34.5,30.27,SE,135,5.0,8.0,46,0.00,,,0.04,meteohub,2013-05-26 00:47:00,
2013-05-25 19:52:00,54.7,33.8,30.27,SSE,158,4.0,8.0,45,0.00,,,0.04,meteohub,2013-05-26 00:52:00,
2013-05-25 19:57:00,54.5,33.6,30.27,South,180,6.0,8.0,45,0.00,,,0.04,meteohub,2013-05-26 00:57:00,
2013-05-25 20:02:00,54.5,33.6,30.28,SE,135,4.0,8.0,45,0.00,,,0.04,meteohub,2013-05-26 01:02:00,
2013-05-25 20:07:00,54.5,33.6,30.28,South,180,4.0,8.0,45,0.00,,,0.04,meteohub,2013-05-26 01:07:00,
2013-05-25 20:12:00,54.3,33.4,30.27,South,180,4.0,8.0,45,0.00,,,0.04,meteohub,2013-05-26 01:12:00,
2013-05-25 20:17:00,54.3,33.4,30.27,South,180,5.0,6.0,45,0.00,,,0.04,meteohub,2013-05-26 01:17:00,
2013-05-25 20:22:00,54.1,33.3,30.27,South,180,4.0,7.0,45,0.00,,,0.04,meteohub,2013-05-26 01:22:00,
2013-05-25 20:27:00,54.0,33.6,30.27,SE,135,4.0,7.0,46,0.00,,,0.04,meteohub,2013-05-26 01:27:00,
2013-05-25 20:32:00,53.8,33.4,30.27,South,180,4.0,7.0,46,0.00,,,0.04,meteohub,2013-05-26 01:32:00,
2013-05-25 20:37:00,53.8,32.9,30.27,SE,135,6.0,6.0,45,0.00,,,0.04,meteohub,2013-05-26 01:37:00,
2013-05-25 20:42:00,53.8,33.4,30.27,SE,135,4.0,6.0,46,0.00,,,0.04,meteohub,2013-05-26 01:42:00,
2013-05-25 20:47:00,53.6,33.3,30.28,South,180,5.0,6.0,46,0.00,,,0.04,meteohub,2013-05-26 01:47:00,
2013-05-25 20:52:00,53.6,33.3,30.27,SE,135,4.0,6.0,46,0.00,,,0.04,meteohub,2013-05-26 01:52:00,
2013-05-25 20:57:00,53.6,33.8,30.28,SE,135,3.0,5.0,47,0.00,,,0.04,meteohub,2013-05-26 01:57:00,
2013-05-25 21:02:00,53.4,33.1,30.28,SE,135,4.0,5.0,46,0.00,,,0.04,meteohub,2013-05-26 02:02:00,
2013-05-25 21:07:00,53.4,33.6,30.29,SE,135,4.0,5.0,47,0.00,,,0.04,meteohub,2013-05-26 02:07:00,
2013-05-25 21:12:00,53.4,33.6,30.28,SE,135,4.0,5.0,47,0.00,,,0.04,meteohub,2013-05-26 02:12:00,
2013-05-25 21:17:00,53.2,34.0,30.29,SE,135,3.0,5.0,48,0.00,,,0.04,meteohub,2013-05-26 02:17:00,
2013-05-25 21:22:00,53.2,34.0,30.29,SE,135,4.0,4.0,48,0.00,,,0.04,meteohub,2013-05-26 02:22:00,
2013-05-25 21:27:00,53.2,34.0,30.29,SSE,158,3.0,4.0,48,0.00,,,0.04,meteohub,2013-05-26 02:27:00,
2013-05-25 21:32:00,53.1,33.8,30.28,South,180,4.0,5.0,48,0.00,,,0.04,meteohub,2013-05-26 02:32:00,
2013-05-25 21:37:00,53.1,33.8,30.29,ESE,113,4.0,5.0,48,0.00,,,0.04,meteohub,2013-05-26 02:37:00,
2013-05-25 21:42:00,53.1,33.8,30.29,South,180,4.0,6.0,48,0.00,,,0.04,meteohub,2013-05-26 02:42:00,
2013-05-25 21:47:00,52.9,33.8,30.29,South,180,5.0,6.0,48,0.00,,,0.04,meteohub,2013-05-26 02:47:00,
2013-05-25 21:52:00,52.9,33.8,30.29,South,180,4.0,6.0,48,0.00,,,0.04,meteohub,2013-05-26 02:52:00,
2013-05-25 21:57:00,52.9,33.8,30.29,SE,135,6.0,6.0,48,0.00,,,0.04,meteohub,2013-05-26 02:57:00,
2013-05-25 22:02:00,52.7,33.6,30.29,SE,135,3.0,6.0,48,0.00,,,0.04,meteohub,2013-05-26 03:02:00,
2013-05-25 22:07:00,52.7,33.6,30.29,SE,135,4.0,6.0,48,0.00,,,0.04,meteohub,2013-05-26 03:07:00,
2013-05-25 22:12:00,52.5,34.0,30.29,SE,135,4.0,6.0,49,0.00,,,0.04,meteohub,2013-05-26 03:12:00,
2013-05-25 22:17:00,52.3,33.8,30.29,East,90,3.0,5.0,49,0.00,,,0.04,meteohub,2013-05-26 03:17:00,
2013-05-25 22:22:00,52.2,34.2,30.29,SE,135,5.0,5.0,50,0.00,,,0.04,meteohub,2013-05-26 03:22:00,
2013-05-25 22:27:00,52.2,34.2,30.29,ESE,113,5.0,6.0,50,0.00,,,0.04,meteohub,2013-05-26 03:27:00,
2013-05-25 22:32:00,52.2,34.2,30.28,SE,135,5.0,6.0,50,0.00,,,0.04,meteohub,2013-05-26 03:32:00,
2013-05-25 22:37:00,51.8,34.2,30.28,ESE,113,3.0,6.0,51,0.00,,,0.04,meteohub,2013-05-26 03:37:00,
2013-05-25 22:42:00,51.4,34.3,30.28,SE,135,4.0,6.0,52,0.00,,,0.04,meteohub,2013-05-26 03:42:00,
2013-05-25 22:47:00,51.3,34.2,30.28,SE,135,4.0,5.0,52,0.00,,,0.04,meteohub,2013-05-26 03:47:00,
2013-05-25 22:52:00,51.1,34.0,30.28,SE,135,3.0,4.0,52,0.00,,,0.04,meteohub,2013-05-26 03:52:00,
2013-05-25 22:57:00,51.1,34.0,30.28,SE,135,3.0,4.0,52,0.00,,,0.04,meteohub,2013-05-26 03:57:00,
2013-05-25 23:01:00,50.9,33.4,30.28,SE,135,4.0,4.0,51,0.00,,,0.04,meteohub,2013-05-26 04:01:00,
2013-05-25 23:02:00,50.9,33.4,30.28,SE,135,4.0,4.0,51,0.00,,,0.04,meteohub,2013-05-26 04:02:00,
2013-05-25 23:03:00,50.9,33.4,30.28,SE,135,4.0,4.0,51,0.00,,,0.04,meteohub,2013-05-26 04:03:00,
2013-05-25 23:06:00,50.7,33.3,30.28,SE,135,3.0,4.0,51,0.00,,,0.04,meteohub,2013-05-26 04:06:00,
2013-05-25 23:11:00,50.7,33.3,30.28,SE,135,3.0,4.0,51,0.00,,,0.04,meteohub,2013-05-26 04:11:00,
2013-05-25 23:16:00,50.5,33.1,30.28,SE,135,4.0,4.0,51,0.00,,,0.04,meteohub,2013-05-26 04:16:00,
2013-05-25 23:21:00,50.4,32.9,30.28,SE,135,3.0,4.0,51,0.00,,,0.04,meteohub,2013-05-26 04:21:00,
2013-05-25 23:26:00,50.2,32.7,30.28,SE,135,3.0,4.0,51,0.00,,,0.04,meteohub,2013-05-26 04:26:00,
2013-05-25 23:31:00,50.0,32.5,30.28,SE,135,3.0,4.0,51,0.00,,,0.04,meteohub,2013-05-26 04:31:00,
2013-05-25 23:36:00,50.0,32.5,30.28,SE,135,2.0,4.0,51,0.00,,,0.04,meteohub,2013-05-26 04:36:00,
2013-05-25 23:41:00,50.0,32.5,30.28,SE,135,3.0,4.0,51,0.00,,,0.04,meteohub,2013-05-26 04:41:00,
2013-05-25 23:46:00,50.0,32.2,30.28,SE,135,2.0,4.0,50,0.00,,,0.04,meteohub,2013-05-26 04:46:00,
2013-05-25 23:51:00,50.2,32.2,30.28,SE,135,4.0,4.0,50,0.00,,,0.04,meteohub,2013-05-26 04:51:00,
2013-05-25 23:57:00,49.8,32.4,30.28,SE,135,3.0,4.0,51,0.00,,,0.04,meteohub,2013-05-26 04:57:00,